Orbital Elements at Epoch 2459200.5 (2020-Dec-17.0) TDB
Reference: JPL 15 (heliocentric ecliptic J2000)
Element | Value | Uncertainty (1-sigma) | Units |
e | .1312209325506397 | 5.2016e-08 | |
a | 2.280879159138856 | 1.7374e-08 | au |
q | 1.981580068841337 | 1.1243e-07 | au |
i | 7.315675148309869 | 5.9351e-06 | deg |
node | 45.24839370831796 | 3.8556e-05 | deg |
peri | 198.8872156330411 | 4.5455e-05 | deg |
M | 206.9932151743397 | 2.3392e-05 | deg |
tp | 2459735.261374487761 (2022-Jun-04.76137449) | 8.3585e-05 | TDB |
period | 1258.206262127195 3.44 | 1.4376e-05 3.936e-08 | d yr |
n | .2861216088619393 | 3.2692e-09 | deg/d |
Q | 2.580178249436376 | 1.9654e-08 | au |
|
| | Orbit Determination Parameters
Additional Information
|